KANOPUS-V 1 (38707 NORAD) Tracking and Keplerian Element Data

This shows tracking and keplerian element data for the satellite.

Feedback or suggestion? Click here.




ElementValue
Catalog38707
NameKANOPUS-V 1
Epoch Orbit67953
Epoch Day286.84089291
Epoch Year2024
RAAN231.5091
Inclination97.4957
Eccentricity0.0007477
Argument of Perigee96.8073
Mean Anonmoly263.4043
Mean Motion15.75172952
Decay Rate0.00238159
L11 38707U 12039A 24286.84089291 .00238159 00000+0 15526-2 0 9991
L22 38707 97.4957 231.5091 0007477 96.8073 263.4043 15.75172952679533



Live tracking and technical data element details for KANOPUS-V 1 (NORAD 38707). KANOPUS-V 1 can be tracked NOW for your location showing map with azimuth and elevation plus other details from your city location.







IsCatalogInMostPopularTable: catalog: 38707, numindb: 380
Update: records affected: 1



GetName: 38707 KANOPUS-V 1

Hit Count: updated at: Thu, 16 Apr 2026 04:17:25 GMT